| time (UTC) | temp F | wind direction | speed MPH | gust MPH | rain 1hr in | rain 24hr in | rain mn in | humidity % | barometer mb |
| 20260507063007 | 49 | 78 | 0.0 | 0.0 | 0.00 | 0.00 | 0.00 | 78 | 1019.3 |
| 20260507062504 | 49 | 78 | 0.0 | 0.0 | 0.00 | 0.00 | 0.00 | 78 | 1019.4 |
| 20260507062003 | 49 | 78 | 0.0 | 0.0 | 0.00 | 0.00 | 0.00 | 79 | 1019.3 |
| 20260507061509 | 48 | 78 | 0.0 | 0.0 | 0.00 | 0.00 | 0.00 | 79 | 1019.4 |
| 20260507061006 | 48 | 78 | 0.0 | 0.0 | 0.00 | 0.00 | 0.00 | 79 | 1019.3 |
| 20260507060503 | 48 | 78 | 0.0 | 0.0 | 0.00 | 0.00 | 0.00 | 79 | 1019.3 |
| 20260507060006 | 48 | 78 | 0.0 | 0.0 | 0.00 | 0.00 | 0.00 | 80 | 1019.5 |
| 20260507055504 | 47 | 78 | 0.0 | 0.0 | 0.00 | 0.00 | 0.00 | 81 | 1019.6 |
| 20260507055004 | 47 | 78 | 0.0 | 0.0 | 0.00 | 0.00 | 0.00 | 82 | 1019.6 |
| 20260507054508 | 47 | 78 | 0.0 | 0.0 | 0.00 | 0.00 | 0.00 | 82 | 1019.6 |
| 20260507054004 | 47 | 78 | 0.0 | 0.0 | 0.00 | 0.00 | 0.00 | 81 | 1019.7 |
| 20260507053504 | 47 | 78 | 0.0 | 0.0 | 0.00 | 0.00 | 0.00 | 81 | 1019.7 |
| 20260507053010 | 47 | 78 | 0.0 | 0.0 | 0.00 | 0.00 | 0.00 | 81 | 1019.5 |
| 20260507052502 | 47 | 78 | 0.0 | 0.0 | 0.00 | 0.00 | 0.00 | 80 | 1019.5 |
| 20260507052004 | 47 | 78 | 0.0 | 0.0 | 0.00 | 0.00 | 0.00 | 80 | 1019.5 |
| 20260507051510 | 47 | 78 | 0.0 | 0.0 | 0.00 | 0.00 | 0.00 | 80 | 1019.5 |
| 20260507051005 | 47 | 78 | 0.0 | 0.0 | 0.00 | 0.00 | 0.00 | 78 | 1019.5 |
| 20260507050503 | 47 | 78 | 0.0 | 0.0 | 0.00 | 0.00 | 0.00 | 78 | 1019.4 |
| 20260507050010 | 47 | 78 | 0.0 | 0.0 | 0.00 | 0.00 | 0.00 | 78 | 1019.5 |
| 20260507045504 | 47 | 78 | 0.0 | 0.0 | 0.00 | 0.00 | 0.00 | 76 | 1019.4 |
| 20260507045004 | 47 | 78 | 0.0 | 0.0 | 0.00 | 0.00 | 0.00 | 76 | 1019.4 |
| 20260507044510 | 48 | 78 | 0.0 | 0.0 | 0.00 | 0.00 | 0.00 | 75 | 1019.4 |
| 20260507044004 | 48 | 78 | 0.0 | 0.0 | 0.00 | 0.00 | 0.00 | 75 | 1019.3 |
| 20260507043503 | 48 | 78 | 0.0 | 0.0 | 0.00 | 0.00 | 0.00 | 74 | 1019.3 |
| 20260507043008 | 48 | 78 | 0.0 | 0.0 | 0.00 | 0.00 | 0.00 | 74 | 1019.3 |
| 20260507042505 | 49 | 78 | 0.0 | 0.0 | 0.00 | 0.00 | 0.00 | 73 | 1019.3 |
| 20260507042004 | 49 | 78 | 0.0 | 0.0 | 0.00 | 0.00 | 0.00 | 73 | 1019.3 |
| 20260507041510 | 50 | 78 | 0.0 | 0.0 | 0.00 | 0.00 | 0.00 | 73 | 1019.3 |
| 20260507041005 | 50 | 78 | 0.0 | 0.0 | 0.00 | 0.00 | 0.00 | 72 | 1019.2 |
| 20260507040504 | 50 | 78 | 0.0 | 0.0 | 0.00 | 0.00 | 0.00 | 71 | 1019.2 |
| 20260507040009 | 51 | 78 | 0.0 | 0.0 | 0.00 | 0.00 | 0.00 | 71 | 1019.4 |
| 20260507035502 | 51 | 78 | 0.0 | 0.0 | 0.00 | 0.00 | 0.00 | 70 | 1019.4 |
| 20260507035005 | 51 | 78 | 0.0 | 0.0 | 0.00 | 0.00 | 0.00 | 70 | 1019.4 |
| 20260507034514 | 51 | 78 | 0.0 | 0.0 | 0.00 | 0.00 | 0.00 | 68 | 1019.5 |
| 20260507034004 | 52 | 78 | 0.0 | 0.0 | 0.00 | 0.00 | 0.00 | 68 | 1019.5 |
| 20260507033503 | 52 | 78 | 0.0 | 0.0 | 0.00 | 0.00 | 0.00 | 70 | 1019.3 |
| 20260507033012 | 52 | 78 | 0.0 | 0.0 | 0.00 | 0.00 | 0.00 | 70 | 1019.3 |
| 20260507032503 | 52 | 78 | 0.0 | 0.0 | 0.00 | 0.00 | 0.00 | 70 | 1019.2 |
| 20260507032006 | 52 | 78 | 0.0 | 0.0 | 0.00 | 0.00 | 0.00 | 68 | 1019.2 |
| 20260507031513 | 53 | 78 | 0.0 | 0.0 | 0.00 | 0.00 | 0.00 | 67 | 1019.3 |
| 20260507031005 | 53 | 78 | 0.0 | 0.0 | 0.00 | 0.00 | 0.00 | 67 | 1019.3 |
| 20260507030506 | 53 | 78 | 0.0 | 0.0 | 0.00 | 0.00 | 0.00 | 66 | 1019.3 |
| 20260507030013 | 53 | 78 | 0.0 | 0.0 | 0.00 | 0.00 | 0.00 | 65 | 1019.2 |
| 20260507025502 | 53 | 78 | 0.0 | 0.0 | 0.00 | 0.00 | 0.00 | 65 | 1019.2 |
| 20260507025003 | 53 | 78 | 0.0 | 0.0 | 0.00 | 0.00 | 0.00 | 64 | 1019.1 |
| 20260507024511 | 54 | 78 | 0.0 | 0.0 | 0.00 | 0.00 | 0.00 | 61 | 1019.1 |
| 20260507024009 | 54 | 78 | 0.0 | 0.0 | 0.00 | 0.00 | 0.00 | 60 | 1019.1 |
| 20260507023503 | 54 | 78 | 0.0 | 0.0 | 0.00 | 0.00 | 0.00 | 60 | 1019.1 |
| 20260507023015 | 54 | 78 | 0.0 | 0.0 | 0.00 | 0.00 | 0.00 | 60 | 1018.9 |
| 20260507022503 | 54 | 78 | 0.0 | 0.0 | 0.00 | 0.00 | 0.00 | 60 | 1019.0 |
| 20260507022007 | 54 | 78 | 0.0 | 0.0 | 0.00 | 0.00 | 0.00 | 60 | 1019.0 |
| 20260507021514 | 55 | 78 | 0.0 | 0.0 | 0.00 | 0.00 | 0.00 | 59 | 1018.9 |
| 20260507021003 | 55 | 78 | 0.0 | 0.0 | 0.00 | 0.00 | 0.00 | 58 | 1018.9 |
| 20260507020503 | 55 | 78 | 0.0 | 0.0 | 0.00 | 0.00 | 0.00 | 57 | 1018.8 |
| 20260507020014 | 55 | 78 | 0.0 | 0.0 | 0.00 | 0.00 | 0.00 | 55 | 1018.7 |
| 20260507015503 | 55 | 78 | 0.0 | 0.0 | 0.00 | 0.00 | 0.00 | 55 | 1018.5 |
| 20260507015007 | 56 | 78 | 0.0 | 0.0 | 0.00 | 0.00 | 0.00 | 54 | 1018.4 |
| 20260507014520 | 56 | 78 | 0.0 | 0.0 | 0.00 | 0.00 | 0.00 | 53 | 1018.3 |
| 20260507014005 | 56 | 78 | 0.0 | 0.0 | 0.00 | 0.00 | 0.00 | 52 | 1018.3 |
| 20260507013503 | 56 | 78 | 0.0 | 0.0 | 0.00 | 0.00 | 0.00 | 52 | 1018.2 |
| 20260507013014 | 56 | 78 | 0.0 | 1.0 | 0.00 | 0.00 | 0.00 | 52 | 1018.2 |
| 20260507012503 | 57 | 78 | 0.0 | 1.0 | 0.00 | 0.00 | 0.00 | 52 | 1018.2 |
| 20260507012004 | 57 | 78 | 0.0 | 1.0 | 0.00 | 0.00 | 0.00 | 51 | 1018.1 |
| 20260507011508 | 57 | 78 | 0.0 | 2.0 | 0.00 | 0.00 | 0.00 | 51 | 1018.1 |
| 20260507011005 | 57 | 78 | 0.0 | 3.0 | 0.00 | 0.00 | 0.00 | 50 | 1018.1 |
| 20260507010503 | 57 | 78 | 0.0 | 3.0 | 0.00 | 0.00 | 0.00 | 50 | 1018.1 |
| 20260507010025 | 57 | 78 | 0.0 | 3.0 | 0.00 | 0.00 | 0.00 | 51 | 1018.1 |
| 20260507005503 | 57 | 78 | 0.0 | 3.0 | 0.00 | 0.00 | 0.00 | 50 | 1018.1 |
| 20260507005002 | 57 | 78 | 0.0 | 3.0 | 0.00 | 0.00 | 0.00 | 50 | 1018.1 |
| 20260507004506 | 57 | 78 | 1.0 | 3.0 | 0.00 | 0.00 | 0.00 | 49 | 1018.1 |
| 20260507004004 | 58 | 78 | 1.0 | 4.0 | 0.00 | 0.00 | 0.00 | 48 | 1018.1 |
| 20260507003503 | 58 | 68 | 0.0 | 4.0 | 0.00 | 0.00 | 0.00 | 49 | 1018.1 |
| 20260507003002 | 58 | 78 | 1.0 | 4.0 | 0.00 | 0.00 | 0.00 | 49 | 1018.0 |
| 20260507002502 | 58 | 78 | 0.0 | 4.0 | 0.00 | 0.00 | 0.00 | 48 | 1018.1 |
| 20260507002003 | 58 | 78 | 1.0 | 6.0 | 0.00 | 0.00 | 0.00 | 48 | 1018.1 |
| 20260507001504 | 58 | 84 | 1.0 | 5.0 | 0.00 | 0.00 | 0.00 | 47 | 1018.1 |
| 20260507001003 | 58 | 65 | 1.0 | 5.0 | 0.00 | 0.00 | 0.00 | 47 | 1018.1 |
| 20260507000503 | 58 | 84 | 1.0 | 5.0 | 0.00 | 0.00 | 0.00 | 47 | 1018.1 |
| 20260507000008 | 58 | 34 | 1.0 | 4.0 | 0.00 | 0.00 | 0.00 | 47 | 1018.1 |
| 20260506235504 | 58 | 64 | 1.0 | 4.0 | 0.00 | 0.00 | 0.00 | 45 | 1017.9 |
| 20260506235004 | 58 | 68 | 1.0 | 4.0 | 0.00 | 0.00 | 0.00 | 45 | 1017.9 |
| 20260506234513 | 59 | 73 | 0.0 | 4.0 | 0.00 | 0.00 | 0.00 | 46 | 1017.8 |
| 20260506234007 | 59 | 84 | 0.0 | 4.0 | 0.00 | 0.00 | 0.00 | 45 | 1017.8 |
| 20260506233504 | 59 | 84 | 2.0 | 5.0 | 0.00 | 0.00 | 0.00 | 46 | 1017.7 |
| 20260506233010 | 59 | 88 | 1.0 | 5.0 | 0.00 | 0.00 | 0.00 | 46 | 1017.7 |
| 20260506232502 | 59 | 57 | 2.0 | 4.0 | 0.00 | 0.00 | 0.00 | 46 | 1017.8 |
| 20260506232002 | 59 | 65 | 1.0 | 4.0 | 0.00 | 0.00 | 0.00 | 45 | 1017.7 |
| 20260506231504 | 59 | 231 | 0.0 | 6.0 | 0.00 | 0.00 | 0.00 | 46 | 1017.7 |
| 20260506231004 | 59 | 69 | 1.0 | 6.0 | 0.00 | 0.00 | 0.00 | 45 | 1017.7 |
| 20260506230502 | 59 | 46 | 1.0 | 7.0 | 0.00 | 0.00 | 0.00 | 44 | 1017.7 |
| 20260506230005 | 60 | 54 | 0.0 | 9.0 | 0.00 | 0.00 | 0.00 | 46 | 1017.7 |
| 20260506225504 | 60 | 85 | 3.0 | 9.0 | 0.00 | 0.00 | 0.00 | 44 | 1017.8 |
| 20260506225005 | 60 | 63 | 1.0 | 4.0 | 0.00 | 0.00 | 0.00 | 43 | 1017.6 |
| 20260506224523 | 60 | 321 | 1.0 | 4.0 | 0.00 | 0.00 | 0.00 | 43 | 1017.6 |
| 20260506224004 | 59 | 71 | 1.0 | 4.0 | 0.00 | 0.00 | 0.00 | 44 | 1017.4 |
| 20260506223506 | 59 | 82 | 0.0 | 6.0 | 0.00 | 0.00 | 0.00 | 46 | 1017.3 |
| 20260506223012 | 60 | 64 | 1.0 | 6.0 | 0.00 | 0.00 | 0.00 | 42 | 1017.3 |
| 20260506222504 | 61 | 280 | 2.0 | 6.0 | 0.00 | 0.00 | 0.00 | 42 | 1017.3 |
| 20260506222008 | 61 | 93 | 1.0 | 8.0 | 0.00 | 0.00 | 0.00 | 43 | 1017.3 |
| 20260506221514 | 61 | 61 | 2.0 | 8.0 | 0.00 | 0.00 | 0.00 | 42 | 1017.3 |
| 20260506221005 | 62 | 201 | 1.0 | 8.0 | 0.00 | 0.00 | 0.00 | 41 | 1017.4 |
| 20260506220503 | 62 | 82 | 2.0 | 8.0 | 0.00 | 0.00 | 0.00 | 43 | 1017.4 |
| 20260506220012 | 62 | 184 | 1.0 | 7.0 | 0.00 | 0.00 | 0.00 | 42 | 1017.5 |
| 20260506215502 | 61 | 77 | 2.0 | 10.0 | 0.00 | 0.00 | 0.00 | 42 | 1017.5 |
| 20260506215003 | 61 | 82 | 3.0 | 10.0 | 0.00 | 0.00 | 0.00 | 41 | 1017.5 |
| 20260506214510 | 62 | 68 | 4.0 | 8.0 | 0.00 | 0.00 | 0.00 | 41 | 1017.6 |
| 20260506214005 | 62 | 39 | 1.0 | 6.0 | 0.00 | 0.00 | 0.00 | 40 | 1017.6 |
| 20260506213505 | 61 | 88 | 2.0 | 8.0 | 0.00 | 0.00 | 0.00 | 40 | 1017.7 |
| 20260506213011 | 61 | 71 | 3.0 | 8.0 | 0.00 | 0.00 | 0.00 | 40 | 1017.8 |
| 20260506212504 | 62 | 49 | 2.0 | 6.0 | 0.00 | 0.00 | 0.00 | 41 | 1017.8 |
| 20260506212006 | 61 | 44 | 1.0 | 6.0 | 0.00 | 0.00 | 0.00 | 40 | 1017.8 |
| 20260506211519 | 61 | 63 | 2.0 | 9.0 | 0.00 | 0.00 | 0.00 | 43 | 1017.8 |
| 20260506211009 | 60 | 217 | 1.0 | 9.0 | 0.00 | 0.00 | 0.00 | 44 | 1017.8 |
| 20260506210503 | 61 | 61 | 2.0 | 8.0 | 0.00 | 0.00 | 0.00 | 41 | 1017.8 |
| 20260506210013 | 61 | 89 | 3.0 | 7.0 | 0.00 | 0.00 | 0.00 | 40 | 1017.9 |
| 20260506205507 | 62 | 64 | 2.0 | 6.0 | 0.00 | 0.00 | 0.00 | 40 | 1017.9 |
| 20260506205003 | 62 | 154 | 1.0 | 7.0 | 0.00 | 0.00 | 0.00 | 39 | 1018.0 |
| 20260506204504 | 62 | 69 | 3.0 | 8.0 | 0.00 | 0.00 | 0.00 | 40 | 1018.0 |
| 20260506204004 | 62 | 74 | 0.0 | 8.0 | 0.00 | 0.00 | 0.00 | 40 | 1018.2 |
| 20260506203506 | 62 | 61 | 2.0 | 5.0 | 0.00 | 0.00 | 0.00 | 42 | 1018.0 |
| 20260506203008 | 62 | 61 | 2.0 | 4.0 | 0.00 | 0.00 | 0.00 | 43 | 1018.2 |
| 20260506202503 | 62 | 52 | 2.0 | 4.0 | 0.00 | 0.00 | 0.00 | 42 | 1018.4 |
| 20260506202004 | 62 | 11 | 1.0 | 8.0 | 0.00 | 0.00 | 0.00 | 40 | 1018.4 |
| 20260506201516 | 61 | 61 | 2.0 | 8.0 | 0.00 | 0.00 | 0.00 | 42 | 1018.4 |
| 20260506201006 | 61 | 345 | 2.0 | 5.0 | 0.00 | 0.00 | 0.00 | 44 | 1018.5 |
| 20260506200505 | 60 | 57 | 2.0 | 5.0 | 0.00 | 0.00 | 0.00 | 43 | 1018.6 |
| 20260506200017 | 59 | 178 | 1.0 | 8.0 | 0.00 | 0.00 | 0.00 | 44 | 1018.7 |
| 20260506195503 | 59 | 51 | 3.0 | 8.0 | 0.00 | 0.00 | 0.00 | 43 | 1018.7 |
| 20260506195007 | 60 | 70 | 2.0 | 6.0 | 0.00 | 0.00 | 0.00 | 42 | 1018.7 |
| 20260506194528 | 60 | 328 | 1.0 | 8.0 | 0.00 | 0.00 | 0.00 | 41 | 1018.8 |
| 20260506194006 | 60 | 85 | 2.0 | 8.0 | 0.00 | 0.00 | 0.00 | 41 | 1018.8 |
| 20260506193503 | 60 | 69 | 2.0 | 11.0 | 0.00 | 0.00 | 0.00 | 42 | 1018.8 |
| 20260506193006 | 61 | 79 | 1.0 | 11.0 | 0.00 | 0.00 | 0.00 | 42 | 1018.7 |
| 20260506192504 | 61 | 67 | 2.0 | 10.0 | 0.00 | 0.00 | 0.00 | 46 | 1018.7 |
| 20260506192004 | 60 | 53 | 2.0 | 7.0 | 0.00 | 0.00 | 0.00 | 43 | 1018.7 |
| 20260506191514 | 60 | 76 | 1.0 | 7.0 | 0.00 | 0.00 | 0.00 | 42 | 1018.7 |
| 20260506191004 | 60 | 60 | 3.0 | 9.0 | 0.00 | 0.00 | 0.00 | 44 | 1018.7 |
| 20260506190505 | 60 | 90 | 3.0 | 9.0 | 0.00 | 0.00 | 0.00 | 42 | 1018.8 |
| 20260506190020 | 61 | 352 | 2.0 | 9.0 | 0.00 | 0.00 | 0.00 | 44 | 1018.7 |
| 20260506185507 | 60 | 51 | 1.0 | 6.0 | 0.00 | 0.00 | 0.00 | 45 | 1018.7 |
| 20260506185006 | 59 | 93 | 3.0 | 9.0 | 0.00 | 0.00 | 0.00 | 43 | 1018.8 |
| 20260506184524 | 59 | 96 | 2.0 | 9.0 | 0.00 | 0.00 | 0.00 | 44 | 1018.8 |
| 20260506184006 | 59 | 53 | 2.0 | 12.0 | 0.00 | 0.00 | 0.00 | 43 | 1018.9 |
| 20260506183508 | 58 | 9 | 4.0 | 12.0 | 0.00 | 0.00 | 0.00 | 46 | 1018.9 |
| 20260506183018 | 58 | 95 | 1.0 | 12.0 | 0.00 | 0.00 | 0.00 | 50 | 1018.9 |
| 20260506182507 | 57 | 92 | 3.0 | 12.0 | 0.00 | 0.00 | 0.00 | 47 | 1019.2 |
| 20260506182004 | 58 | 64 | 3.0 | 9.0 | 0.00 | 0.00 | 0.00 | 46 | 1019.2 |
| 20260506181508 | 59 | 61 | 2.0 | 9.0 | 0.00 | 0.00 | 0.00 | 48 | 1019.3 |
| 20260506181004 | 58 | 72 | 2.0 | 10.0 | 0.00 | 0.00 | 0.00 | 52 | 1019.4 |
| 20260506180504 | 58 | 76 | 4.0 | 10.0 | 0.00 | 0.00 | 0.00 | 48 | 1019.4 |
| 20260506180014 | 58 | 105 | 2.0 | 8.0 | 0.00 | 0.00 | 0.00 | 49 | 1019.5 |
| 20260506175505 | 58 | 63 | 3.0 | 9.0 | 0.00 | 0.00 | 0.00 | 50 | 1019.6 |
| 20260506175006 | 57 | 77 | 4.0 | 9.0 | 0.00 | 0.00 | 0.00 | 49 | 1019.6 |
| 20260506174521 | 58 | 81 | 3.0 | 8.0 | 0.00 | 0.00 | 0.00 | 51 | 1019.7 |
| 20260506174007 | 57 | 360 | 1.0 | 8.0 | 0.00 | 0.00 | 0.00 | 54 | 1019.6 |
| 20260506173507 | 56 | 70 | 2.0 | 9.0 | 0.00 | 0.00 | 0.00 | 54 | 1019.7 |
| 20260506173022 | 56 | 77 | 4.0 | 11.0 | 0.00 | 0.00 | 0.00 | 51 | 1019.8 |
| 20260506172506 | 56 | 40 | 2.0 | 11.0 | 0.00 | 0.00 | 0.00 | 54 | 1019.7 |
| 20260506172006 | 56 | 107 | 3.0 | 10.0 | 0.00 | 0.00 | 0.00 | 55 | 1019.7 |
| 20260506171525 | 56 | 78 | 4.0 | 10.0 | 0.00 | 0.00 | 0.00 | 55 | 1019.8 |
| 20260506171011 | 55 | 70 | 1.0 | 9.0 | 0.00 | 0.00 | 0.00 | 57 | 1019.7 |
| 20260506170508 | 54 | 59 | 2.0 | 11.0 | 0.00 | 0.00 | 0.00 | 57 | 1019.7 |
| 20260506170011 | 55 | 76 | 5.0 | 11.0 | 0.00 | 0.00 | 0.00 | 56 | 1019.8 |
| 20260506165506 | 54 | 73 | 4.0 | 11.0 | 0.00 | 0.00 | 0.00 | 58 | 1019.7 |
| 20260506165006 | 54 | 72 | 4.0 | 9.0 | 0.00 | 0.00 | 0.00 | 57 | 1019.8 |
| 20260506164517 | 54 | 39 | 2.0 | 9.0 | 0.00 | 0.00 | 0.00 | 59 | 1019.8 |
| 20260506164008 | 54 | 57 | 4.0 | 11.0 | 0.00 | 0.00 | 0.00 | 62 | 1019.8 |
| 20260506163508 | 53 | 61 | 4.0 | 11.0 | 0.00 | 0.00 | 0.00 | 60 | 1019.7 |
| 20260506163022 | 53 | 60 | 4.0 | 9.0 | 0.00 | 0.00 | 0.00 | 62 | 1019.3 |
| 20260506162506 | 53 | 61 | 3.0 | 9.0 | 0.00 | 0.00 | 0.00 | 63 | 1019.4 |
| 20260506162011 | 52 | 69 | 2.0 | 8.0 | 0.00 | 0.00 | 0.00 | 64 | 1019.5 |
| 20260506161522 | 52 | 80 | 3.0 | 8.0 | 0.00 | 0.00 | 0.00 | 63 | 1019.6 |
| 20260506161006 | 52 | 55 | 3.0 | 8.0 | 0.00 | 0.00 | 0.00 | 67 | 1019.5 |
| 20260506160509 | 52 | 53 | 2.0 | 11.0 | 0.00 | 0.00 | 0.00 | 66 | 1019.7 |
| 20260506160034 | 53 | 43 | 2.0 | 11.0 | 0.00 | 0.00 | 0.00 | 67 | 1019.7 |
| 20260506155507 | 53 | 50 | 2.0 | 6.0 | 0.00 | 0.00 | 0.00 | 68 | 1019.7 |
| 20260506155009 | 52 | 34 | 3.0 | 9.0 | 0.00 | 0.00 | 0.00 | 71 | 1019.7 |
| 20260506154516 | 51 | 55 | 3.0 | 9.0 | 0.00 | 0.00 | 0.00 | 70 | 1019.6 |
| 20260506154006 | 51 | 74 | 2.0 | 7.0 | 0.00 | 0.00 | 0.00 | 70 | 1019.6 |
| 20260506153505 | 51 | 68 | 3.0 | 7.0 | 0.00 | 0.00 | 0.00 | 70 | 1019.7 |
| 20260506153017 | 51 | 53 | 3.0 | 7.0 | 0.00 | 0.00 | 0.00 | 71 | 1019.6 |
| 20260506152504 | 50 | 20 | 2.0 | 8.0 | 0.00 | 0.00 | 0.00 | 72 | 1019.4 |
| 20260506152002 | 50 | 101 | 3.0 | 9.0 | 0.00 | 0.00 | 0.00 | 70 | 1019.4 |
| 20260506151505 | 50 | 104 | 4.0 | 9.0 | 0.00 | 0.00 | 0.00 | 71 | 1019.5 |
| 20260506151003 | 50 | 49 | 2.0 | 5.0 | 0.00 | 0.00 | 0.00 | 72 | 1019.7 |
| 20260506150503 | 50 | 59 | 1.0 | 8.0 | 0.00 | 0.00 | 0.00 | 74 | 1019.8 |
| 20260506150004 | 49 | 51 | 2.0 | 8.0 | 0.00 | 0.00 | 0.00 | 73 | 1019.6 |
| 20260506145505 | 49 | 77 | 2.0 | 6.0 | 0.00 | 0.00 | 0.00 | 72 | 1019.5 |
| 20260506145005 | 49 | 78 | 2.0 | 6.0 | 0.00 | 0.00 | 0.00 | 72 | 1019.3 |
| 20260506144512 | 49 | 73 | 2.0 | 6.0 | 0.00 | 0.00 | 0.00 | 72 | 1019.1 |
| 20260506144008 | 49 | 105 | 1.0 | 6.0 | 0.00 | 0.00 | 0.00 | 75 | 1019.5 |
| 20260506143503 | 49 | 79 | 1.0 | 4.0 | 0.00 | 0.00 | 0.00 | 75 | 1019.3 |
| 20260506143016 | 49 | 61 | 1.0 | 5.0 | 0.00 | 0.00 | 0.00 | 75 | 1019.3 |
| 20260506142507 | 49 | 48 | 1.0 | 5.0 | 0.00 | 0.00 | 0.00 | 76 | 1019.3 |
| 20260506142011 | 49 | 77 | 1.0 | 3.0 | 0.00 | 0.00 | 0.00 | 76 | 1019.6 |
| 20260506141504 | 49 | 57 | 0.0 | 4.0 | 0.00 | 0.00 | 0.00 | 75 | 1019.6 |
| 20260506141002 | 49 | 80 | 0.0 | 7.0 | 0.00 | 0.00 | 0.00 | 76 | 1019.5 |
| 20260506140504 | 49 | 71 | 1.0 | 7.0 | 0.00 | 0.00 | 0.00 | 76 | 1019.2 |
| 20260506140004 | 49 | 71 | 1.0 | 4.0 | 0.00 | 0.00 | 0.00 | 79 | 1019.0 |
| 20260506135504 | 48 | 67 | 1.0 | 6.0 | 0.00 | 0.00 | 0.00 | 79 | 1018.9 |
| 20260506135003 | 47 | 69 | 1.0 | 6.0 | 0.00 | 0.00 | 0.00 | 79 | 1018.9 |
| 20260506134508 | 47 | 64 | 1.0 | 5.0 | 0.00 | 0.00 | 0.00 | 80 | 1018.9 |
| 20260506134004 | 47 | 12 | 0.0 | 4.0 | 0.00 | 0.00 | 0.00 | 82 | 1019.0 |
| 20260506133504 | 46 | 63 | 2.0 | 4.0 | 0.00 | 0.00 | 0.00 | 81 | 1019.0 |
| 20260506133012 | 46 | 78 | 1.0 | 4.0 | 0.00 | 0.00 | 0.00 | 82 | 1019.2 |
| 20260506132509 | 46 | 67 | 0.0 | 4.0 | 0.00 | 0.00 | 0.00 | 82 | 1019.2 |
| 20260506132009 | 46 | 73 | 0.0 | 2.0 | 0.00 | 0.00 | 0.00 | 83 | 1019.1 |
| 20260506131536 | 46 | 68 | 0.0 | 5.0 | 0.00 | 0.00 | 0.00 | 83 | 1019.4 |
| 20260506131006 | 46 | 68 | 2.0 | 5.0 | 0.00 | 0.00 | 0.00 | 83 | 1019.2 |
| 20260506130507 | 45 | 75 | 0.0 | 4.0 | 0.00 | 0.00 | 0.00 | 84 | 1019.2 |
| 20260506130035 | 45 | 75 | 0.0 | 5.0 | 0.00 | 0.00 | 0.00 | 84 | 1019.0 |
| 20260506125502 | 45 | 78 | 1.0 | 5.0 | 0.00 | 0.00 | 0.00 | 83 | 1018.7 |
| 20260506125003 | 45 | 78 | 1.0 | 4.0 | 0.00 | 0.00 | 0.00 | 84 | 1018.7 |
| 20260506124506 | 45 | 37 | 0.0 | 5.0 | 0.00 | 0.00 | 0.00 | 85 | 1018.6 |
| 20260506124003 | 45 | 62 | 2.0 | 5.0 | 0.00 | 0.00 | 0.00 | 85 | 1018.6 |
| 20260506123503 | 45 | 68 | 2.0 | 4.0 | 0.00 | 0.00 | 0.00 | 85 | 1018.4 |
| 20260506123010 | 45 | 59 | 0.0 | 3.0 | 0.00 | 0.00 | 0.00 | 85 | 1018.7 |
| 20260506122504 | 45 | 55 | 0.0 | 4.0 | 0.00 | 0.00 | 0.00 | 85 | 1018.4 |
| 20260506122006 | 44 | 84 | 0.0 | 4.0 | 0.00 | 0.00 | 0.00 | 85 | 1018.3 |
| 20260506121513 | 44 | 83 | 0.0 | 3.0 | 0.00 | 0.00 | 0.00 | 86 | 1018.3 |
| 20260506121008 | 44 | 83 | 0.0 | 0.0 | 0.00 | 0.00 | 0.00 | 86 | 1018.2 |
| 20260506120504 | 44 | 83 | 0.0 | 0.0 | 0.00 | 0.00 | 0.00 | 86 | 1018.1 |
| 20260506120021 | 44 | 83 | 0.0 | 0.0 | 0.00 | 0.00 | 0.00 | 86 | 1018.0 |
| 20260506115506 | 44 | 83 | 0.0 | 0.0 | 0.00 | 0.00 | 0.00 | 86 | 1017.9 |
| 20260506115005 | 44 | 83 | 0.0 | 0.0 | 0.00 | 0.00 | 0.00 | 86 | 1017.7 |
| 20260506114523 | 44 | 83 | 0.0 | 0.0 | 0.00 | 0.00 | 0.00 | 86 | 1017.6 |
| 20260506114005 | 44 | 83 | 0.0 | 2.0 | 0.00 | 0.00 | 0.00 | 87 | 1017.3 |
| 20260506113504 | 44 | 83 | 0.0 | 2.0 | 0.00 | 0.00 | 0.00 | 87 | 1017.2 |
| 20260506113008 | 44 | 69 | 0.0 | 2.0 | 0.00 | 0.00 | 0.00 | 87 | 1017.2 |
| 20260506112505 | 44 | 69 | 0.0 | 3.0 | 0.00 | 0.00 | 0.00 | 86 | 1017.3 |
| 20260506112003 | 44 | 69 | 0.0 | 4.0 | 0.00 | 0.00 | 0.00 | 86 | 1017.1 |
| 20260506111513 | 44 | 84 | 1.0 | 4.0 | 0.00 | 0.00 | 0.00 | 86 | 1016.9 |
| 20260506111003 | 44 | 89 | 1.0 | 4.0 | 0.00 | 0.00 | 0.00 | 87 | 1017.0 |
| 20260506110507 | 44 | 67 | 0.0 | 3.0 | 0.00 | 0.00 | 0.00 | 87 | 1017.0 |
| 20260506110012 | 44 | 67 | 1.0 | 3.0 | 0.00 | 0.00 | 0.00 | 87 | 1017.0 |
| 20260506105507 | 44 | 67 | 0.0 | 0.0 | 0.00 | 0.00 | 0.00 | 87 | 1017.0 |
| 20260506105007 | 44 | 67 | 0.0 | 1.0 | 0.00 | 0.00 | 0.00 | 87 | 1017.2 |
| 20260506104520 | 44 | 67 | 0.0 | 3.0 | 0.00 | 0.00 | 0.00 | 87 | 1017.1 |
| 20260506104006 | 44 | 67 | 0.0 | 3.0 | 0.00 | 0.00 | 0.00 | 87 | 1017.1 |
| 20260506103507 | 44 | 57 | 0.0 | 3.0 | 0.00 | 0.00 | 0.00 | 87 | 1017.0 |
| 20260506103034 | 44 | 55 | 0.0 | 4.0 | 0.00 | 0.00 | 0.00 | 87 | 1016.5 |
| 20260506102508 | 44 | 82 | 0.0 | 4.0 | 0.00 | 0.00 | 0.00 | 87 | 1016.6 |
| 20260506102003 | 44 | 84 | 0.0 | 4.0 | 0.00 | 0.00 | 0.00 | 87 | 1016.8 |
| 20260506101508 | 44 | 80 | 1.0 | 4.0 | 0.00 | 0.00 | 0.00 | 87 | 1016.7 |
| 20260506101003 | 44 | 84 | 0.0 | 4.0 | 0.00 | 0.00 | 0.00 | 87 | 1016.7 |
| 20260506100506 | 44 | 81 | 1.0 | 4.0 | 0.00 | 0.00 | 0.00 | 87 | 1016.4 |
| 20260506100011 | 44 | 60 | 1.0 | 4.0 | 0.00 | 0.00 | 0.00 | 87 | 1016.4 |
| 20260506095508 | 44 | 65 | 0.0 | 3.0 | 0.00 | 0.00 | 0.00 | 87 | 1016.5 |
| 20260506095005 | 44 | 70 | 0.0 | 5.0 | 0.00 | 0.00 | 0.00 | 87 | 1016.5 |
| 20260506094518 | 44 | 63 | 2.0 | 5.0 | 0.00 | 0.00 | 0.00 | 87 | 1016.4 |
| 20260506094009 | 44 | 39 | 2.0 | 5.0 | 0.00 | 0.00 | 0.00 | 87 | 1016.5 |
| 20260506093507 | 44 | 82 | 1.0 | 6.0 | 0.00 | 0.00 | 0.00 | 87 | 1016.5 |
| 20260506093026 | 44 | 80 | 1.0 | 6.0 | 0.00 | 0.00 | 0.00 | 87 | 1016.7 |
| 20260506092510 | 44 | 64 | 2.0 | 6.0 | 0.00 | 0.00 | 0.00 | 87 | 1016.4 |
| 20260506092014 | 44 | 67 | 1.0 | 4.0 | 0.00 | 0.00 | 0.00 | 86 | 1016.4 |
| 20260506091527 | 44 | 90 | 1.0 | 6.0 | 0.00 | 0.00 | 0.00 | 86 | 1016.6 |
| 20260506091007 | 44 | 48 | 2.0 | 6.0 | 0.00 | 0.00 | 0.00 | 86 | 1016.6 |
| 20260506090503 | 44 | 61 | 1.0 | 6.0 | 0.00 | 0.00 | 0.00 | 86 | 1017.1 |
| 20260506090010 | 44 | 84 | 2.0 | 6.0 | 0.00 | 0.00 | 0.00 | 85 | 1017.1 |
| 20260506085506 | 45 | 56 | 0.0 | 4.0 | 0.00 | 0.00 | 0.00 | 85 | 1017.1 |
| 20260506085003 | 45 | 42 | 2.0 | 4.0 | 0.00 | 0.00 | 0.00 | 85 | 1017.1 |
| 20260506084514 | 45 | 74 | 1.0 | 4.0 | 0.00 | 0.00 | 0.00 | 85 | 1017.1 |
| 20260506084003 | 45 | 23 | 1.0 | 5.0 | 0.00 | 0.00 | 0.00 | 84 | 1017.2 |
| 20260506083508 | 45 | 67 | 1.0 | 7.0 | 0.00 | 0.00 | 0.00 | 84 | 1016.4 |
| 20260506083017 | 45 | 68 | 2.0 | 7.0 | 0.00 | 0.00 | 0.00 | 84 | 1016.6 |
| 20260506082508 | 45 | 76 | 1.0 | 4.0 | 0.00 | 0.00 | 0.00 | 84 | 1016.9 |
| 20260506082006 | 45 | 53 | 0.0 | 5.0 | 0.00 | 0.00 | 0.00 | 83 | 1016.8 |
| 20260506081522 | 45 | 64 | 2.0 | 6.0 | 0.00 | 0.00 | 0.00 | 83 | 1016.8 |
| 20260506081007 | 45 | 34 | 1.0 | 7.0 | 0.00 | 0.00 | 0.00 | 83 | 1016.6 |
| 20260506080510 | 45 | 57 | 4.0 | 7.0 | 0.00 | 0.00 | 0.00 | 83 | 1016.9 |
| 20260506073508 | 45 | 72 | 2.0 | 9.0 | 0.00 | 0.00 | 0.00 | 84 | 1015.5 |
| 20260506073016 | 45 | 51 | 3.0 | 7.0 | 0.00 | 0.00 | 0.00 | 83 | 1015.2 |
| 20260506072508 | 45 | 84 | 3.0 | 10.0 | 0.00 | 0.00 | 0.00 | 83 | 1015.2 |
| 20260506072008 | 45 | 69 | 4.0 | 10.0 | 0.00 | 0.00 | 0.00 | 83 | 1015.2 |
| 20260506071523 | 45 | 49 | 4.0 | 8.0 | 0.00 | 0.00 | 0.00 | 83 | 1015.2 |
| 20260506071009 | 45 | 65 | 2.0 | 9.0 | 0.00 | 0.00 | 0.00 | 83 | 1015.1 |
| 20260506070512 | 45 | 84 | 3.0 | 10.0 | 0.00 | 0.00 | 0.00 | 82 | 1014.7 |